timestamp,wind_dir_avg,wind_spd_max_dir,wind_spd_avg,wind_spd_gust,battery_voltage,lat,long
2018-07-16 00:00:00+00:00,224.0,227.0,6.31,6.86,,47.59359,-54.27349
2018-07-16 00:10:00+00:00,232.0,234.0,6.43,7.23,,47.59359,-54.27349
2018-07-16 00:20:00+00:00,227.0,227.0,7.38,8.51,,47.59359,-54.27349
2018-07-16 00:30:00+00:00,226.0,222.0,7.54,8.94,,47.59359,-54.27349
2018-07-16 00:40:00+00:00,230.0,231.0,6.36,7.05,,47.59359,-54.27349
2018-07-16 00:50:00+00:00,231.0,227.0,5.6,6.26,,47.59359,-54.27349
2018-07-16 01:00:00+00:00,232.0,231.0,6.51,6.97,,47.59359,-54.27349
2018-07-16 01:10:00+00:00,233.0,237.0,5.59,6.53,,47.59359,-54.27349
2018-07-16 01:20:00+00:00,226.0,226.0,6.13,7.35,,47.59359,-54.27349
2018-07-16 01:30:00+00:00,226.0,229.0,6.38,6.8,,47.59359,-54.27349
2018-07-16 01:40:00+00:00,232.0,232.0,6.25,6.98,,47.59359,-54.27349
2018-07-16 01:50:00+00:00,228.0,235.0,5.05,5.77,,47.59359,-54.27349
2018-07-16 02:00:00+00:00,229.0,232.0,5.42,6.04,,47.59359,-54.27349
2018-07-16 02:10:00+00:00,226.0,225.0,6.53,7.29,,47.59359,-54.27349
2018-07-16 02:20:00+00:00,224.0,223.0,6.2,6.72,,47.59359,-54.27349
2018-07-16 02:30:00+00:00,226.0,224.0,6.14,6.65,,47.59359,-54.27349
2018-07-16 02:40:00+00:00,230.0,228.0,5.96,6.59,,47.59359,-54.27349
2018-07-16 02:50:00+00:00,227.0,232.0,4.77,5.26,,47.59359,-54.27349
2018-07-16 03:00:00+00:00,220.0,223.0,4.75,5.2,,47.59359,-54.27349
2018-07-16 03:10:00+00:00,224.0,223.0,5.04,5.7,,47.59359,-54.27349
2018-07-16 03:20:00+00:00,232.0,232.0,5.61,6.44,,47.59359,-54.27349
2018-07-16 03:30:00+00:00,227.0,226.0,5.63,6.09,,47.59359,-54.27349
2018-07-16 03:40:00+00:00,223.0,229.0,4.99,5.49,,47.59359,-54.27349
2018-07-16 03:50:00+00:00,232.0,234.0,5.08,5.77,,47.59359,-54.27349
2018-07-16 04:00:00+00:00,221.0,225.0,4.59,5.55,,47.59359,-54.27349
2018-07-16 04:10:00+00:00,226.0,228.0,4.94,5.7,,47.59359,-54.27349
2018-07-16 04:20:00+00:00,222.0,220.0,5.84,6.51,,47.59359,-54.27349
2018-07-16 04:30:00+00:00,222.0,228.0,5.05,5.68,,47.59359,-54.27349
2018-07-16 04:40:00+00:00,227.0,219.0,6.42,7.58,,47.59359,-54.27349
2018-07-16 04:50:00+00:00,228.0,226.0,5.46,5.99,,47.59359,-54.27349
2018-07-16 05:00:00+00:00,232.0,235.0,4.63,5.26,,47.59359,-54.27349
2018-07-16 05:10:00+00:00,232.0,234.0,3.65,4.51,,47.59359,-54.27349
2018-07-16 05:20:00+00:00,219.0,220.0,3.65,3.99,,47.59359,-54.27349
2018-07-16 05:30:00+00:00,214.0,218.0,4.48,5.13,,47.59359,-54.27349
2018-07-16 05:40:00+00:00,219.0,219.0,4.44,4.98,,47.59359,-54.27349
2018-07-16 05:50:00+00:00,225.0,226.0,4.16,4.72,,47.59359,-54.27349
2018-07-16 06:00:00+00:00,216.0,221.0,3.64,4.11,,47.59359,-54.27349
2018-07-16 06:10:00+00:00,217.0,219.0,5.05,5.67,,47.59359,-54.27349
2018-07-16 06:20:00+00:00,218.0,218.0,4.82,5.24,,47.59359,-54.27349
2018-07-16 08:10:00+00:00,237.0,237.0,3.2,3.81,,47.59359,-54.27349
2018-07-16 08:20:00+00:00,218.0,218.0,3.89,4.35,,47.59359,-54.27349
2018-07-16 08:30:00+00:00,219.0,218.0,3.96,4.6,,47.59359,-54.27349
2018-07-16 08:40:00+00:00,221.0,225.0,7.03,7.74,,47.59359,-54.27349
2018-07-16 08:50:00+00:00,244.0,248.0,6.73,8.16,,47.59359,-54.27349
2018-07-16 09:00:00+00:00,270.0,279.0,1.74,2.05,,47.59359,-54.27349
2018-07-16 09:10:00+00:00,237.0,237.0,2.82,3.13,,47.59359,-54.27349
2018-07-16 09:20:00+00:00,237.0,241.0,3.83,4.49,,47.59359,-54.27349
2018-07-16 09:30:00+00:00,241.0,238.0,3.93,4.35,,47.59359,-54.27349
2018-07-16 09:40:00+00:00,223.0,228.0,3.54,3.79,,47.59359,-54.27349
2018-07-16 09:50:00+00:00,234.0,240.0,2.84,3.72,,47.59359,-54.27349
2018-07-16 10:00:00+00:00,239.0,243.0,1.87,2.19,,47.59359,-54.27349
2018-07-16 10:10:00+00:00,265.0,273.0,1.68,2.08,,47.59359,-54.27349
2018-07-16 10:20:00+00:00,215.0,216.0,1.92,2.56,,47.59359,-54.27349
2018-07-16 10:30:00+00:00,226.0,226.0,3.8,4.01,,47.59359,-54.27349
2018-07-16 10:40:00+00:00,233.0,233.0,3.98,4.52,,47.59359,-54.27349
2018-07-16 10:50:00+00:00,247.0,252.0,2.29,2.68,,47.59359,-54.27349
2018-07-16 11:00:00+00:00,220.0,220.0,3.42,3.51,,47.59359,-54.27349
2018-07-16 11:10:00+00:00,232.0,231.0,1.97,2.09,,47.59359,-54.27349
2018-07-16 11:20:00+00:00,218.0,218.0,1.7,1.84,,47.59359,-54.27349
2018-07-16 11:30:00+00:00,242.0,241.0,2.29,2.46,,47.59359,-54.27349
2018-07-16 11:40:00+00:00,223.0,222.0,2.66,3.04,,47.59359,-54.27349
2018-07-16 11:50:00+00:00,215.0,216.0,2.76,3.17,,47.59359,-54.27349
2018-07-16 12:00:00+00:00,246.0,245.0,2.47,2.74,,47.59359,-54.27349
2018-07-16 12:10:00+00:00,249.0,250.0,2.29,2.59,,47.59359,-54.27349
2018-07-16 12:20:00+00:00,222.0,219.0,1.72,1.95,,47.59359,-54.27349
2018-07-16 12:30:00+00:00,178.0,179.0,3.04,3.29,,47.59359,-54.27349
2018-07-16 12:40:00+00:00,213.0,221.0,2.77,3.12,,47.59359,-54.27349
2018-07-16 12:50:00+00:00,199.0,199.0,3.77,4.07,,47.59359,-54.27349
2018-07-16 13:00:00+00:00,219.0,218.0,5.51,5.95,,47.59359,-54.27349
2018-07-16 13:10:00+00:00,229.0,230.0,3.82,4.22,,47.59359,-54.27349
2018-07-16 13:20:00+00:00,234.0,236.0,2.73,3.08,,47.59359,-54.27349
2018-07-16 13:30:00+00:00,211.0,214.0,3.18,3.47,,47.59359,-54.27349
2018-07-16 13:40:00+00:00,208.0,208.0,4.08,4.44,,47.59359,-54.27349
2018-07-16 13:50:00+00:00,218.0,218.0,5.42,5.84,,47.59359,-54.27349
2018-07-16 14:00:00+00:00,239.0,238.0,4.04,4.86,,47.59359,-54.27349
2018-07-16 14:10:00+00:00,236.0,241.0,5.58,6.25,,47.59359,-54.27349
2018-07-16 14:20:00+00:00,243.0,240.0,4.33,4.67,,47.59359,-54.27349
2018-07-16 14:30:00+00:00,237.0,235.0,3.74,4.24,,47.59359,-54.27349
2018-07-16 14:40:00+00:00,225.0,231.0,4.29,4.95,,47.59359,-54.27349
2018-07-16 14:50:00+00:00,227.0,228.0,6.26,6.8,,47.59359,-54.27349
2018-07-16 15:00:00+00:00,227.0,226.0,6.22,7.03,,47.59359,-54.27349
2018-07-16 15:10:00+00:00,226.0,226.0,6.36,7.19,,47.59359,-54.27349
2018-07-16 15:20:00+00:00,232.0,233.0,7.06,7.76,,47.59359,-54.27349
2018-07-16 15:30:00+00:00,236.0,234.0,5.82,6.29,,47.59359,-54.27349
2018-07-16 15:40:00+00:00,246.0,249.0,3.62,4.16,,47.59359,-54.27349
2018-07-16 15:50:00+00:00,271.0,272.0,6.49,7.09,,47.59359,-54.27349
2018-07-16 16:00:00+00:00,331.0,328.0,1.32,1.42,,47.59359,-54.27349
2018-07-16 16:10:00+00:00,235.0,238.0,6.2,7.0,,47.59359,-54.27349
2018-07-16 16:20:00+00:00,207.0,202.0,1.73,2.24,,47.59359,-54.27349
2018-07-16 16:30:00+00:00,213.0,214.0,4.14,4.31,,47.59359,-54.27349
2018-07-16 16:40:00+00:00,182.0,178.0,2.57,3.17,,47.59359,-54.27349
2018-07-16 16:50:00+00:00,214.0,214.0,4.0,4.61,,47.59359,-54.27349
2018-07-16 17:00:00+00:00,228.0,227.0,4.95,5.38,,47.59359,-54.27349
2018-07-16 17:10:00+00:00,201.0,208.0,3.56,4.26,,47.59359,-54.27349
2018-07-16 17:20:00+00:00,204.0,210.0,5.26,5.8,,47.59359,-54.27349
2018-07-16 17:30:00+00:00,211.0,210.0,5.32,5.67,,47.59359,-54.27349
2018-07-16 17:40:00+00:00,217.0,218.0,5.61,5.89,,47.59359,-54.27349
2018-07-16 17:50:00+00:00,212.0,213.0,4.98,5.18,,47.59359,-54.27349
2018-07-16 18:00:00+00:00,226.0,226.0,5.02,5.13,,47.59359,-54.27349
2018-07-16 18:10:00+00:00,217.0,218.0,5.18,5.56,,47.59359,-54.27349
2018-07-16 18:20:00+00:00,226.0,226.0,4.22,5.07,,47.59359,-54.27349
2018-07-16 18:30:00+00:00,224.0,227.0,4.57,5.08,,47.59359,-54.27349
2018-07-16 18:40:00+00:00,220.0,218.0,4.15,4.55,,47.59359,-54.27349
2018-07-16 18:50:00+00:00,205.0,208.0,3.16,3.36,,47.59359,-54.27349
2018-07-16 19:00:00+00:00,238.0,242.0,3.04,3.41,,47.59359,-54.27349
2018-07-16 19:10:00+00:00,268.0,277.0,2.15,2.54,,47.59359,-54.27349
2018-07-16 19:20:00+00:00,272.0,269.0,3.13,3.33,,47.59359,-54.27349
2018-07-16 19:30:00+00:00,238.0,245.0,1.44,1.66,,47.59359,-54.27349
2018-07-16 19:40:00+00:00,273.0,276.0,2.96,3.32,,47.59359,-54.27349
2018-07-16 19:50:00+00:00,269.0,272.0,2.55,2.79,,47.59359,-54.27349
2018-07-16 20:00:00+00:00,246.0,249.0,2.2,2.54,,47.59359,-54.27349
2018-07-16 20:10:00+00:00,218.0,212.0,1.99,2.53,,47.59359,-54.27349
2018-07-16 20:20:00+00:00,195.0,196.0,2.53,2.61,,47.59359,-54.27349
2018-07-16 20:30:00+00:00,180.0,177.0,2.79,2.95,,47.59359,-54.27349
2018-07-16 20:40:00+00:00,155.0,155.0,2.82,3.01,,47.59359,-54.27349
2018-07-16 20:50:00+00:00,154.0,156.0,2.87,3.06,,47.59359,-54.27349
2018-07-16 21:00:00+00:00,157.0,158.0,2.64,3.02,,47.59359,-54.27349
2018-07-16 21:10:00+00:00,156.0,156.0,3.16,3.24,,47.59359,-54.27349
2018-07-16 21:20:00+00:00,172.0,170.0,3.24,3.33,,47.59359,-54.27349
2018-07-16 21:30:00+00:00,195.0,196.0,2.68,2.86,,47.59359,-54.27349
2018-07-16 21:40:00+00:00,212.0,212.0,2.72,3.01,,47.59359,-54.27349
2018-07-16 21:50:00+00:00,193.0,195.0,2.25,2.4,,47.59359,-54.27349
2018-07-16 22:00:00+00:00,205.0,205.0,3.29,3.39,,47.59359,-54.27349
2018-07-16 22:10:00+00:00,209.0,210.0,3.55,3.64,,47.59359,-54.27349
2018-07-16 22:20:00+00:00,230.0,231.0,2.89,3.16,,47.59359,-54.27349
2018-07-16 22:30:00+00:00,230.0,227.0,2.34,2.85,,47.59359,-54.27349
2018-07-16 22:40:00+00:00,219.0,223.0,4.29,4.63,,47.59359,-54.27349
2018-07-16 23:00:00+00:00,211.0,210.0,3.23,3.47,,47.59359,-54.27349
2018-07-16 23:10:00+00:00,222.0,223.0,5.95,6.3,,47.59359,-54.27349
2018-07-16 23:20:00+00:00,226.0,227.0,4.79,5.15,,47.59359,-54.27349
2018-07-16 23:30:00+00:00,209.0,205.0,3.98,4.44,,47.59359,-54.27349
